Flag for Canada Weather past 2 weeks in Saanich, British Columbia, Canada

Now
45 °F

Broken clouds.


Feels Like: 41 °F
Forecast: 42 / 51 °F
Wind: 6 mph from Northeast

Location: Victoria Int. Airportb. C.

Current Time: Feb 27, 2015 at 9:56:38 AM

Latest Report: Feb 27, 2015 at 9:00 AM


Visibility: 20 mi

Pressure: 29.80 "Hg

Humidity: 93%

Dew point: 43 °F

Location of SaanichLocation

Historic Weather in Saanich — Graph

°F

Saanich temperature yesterday

Maximum temperature yesterday: 50 °F (at 12:00 PM)
Minimum temperature yesterday: 45 °F (at 12:00 AM)
Average temperature yesterday: 46 °F

Past Weeks' High & Low Weather Summary

 TemperatureHumidityPressure
High55 °F (Feb 13, 12:00 PM)100% (Feb 12, 8:00 AM)30.51 "Hg (Feb 12, 8:00 AM)
Low32 °F (Feb 23, 1:00 AM)38% (Feb 16, 2:00 PM)29.78 "Hg (Feb 27, 7:00 AM)
Average45 °F86%30.29 "Hg
* Reported Feb 12 8:00 AM — Feb 27 8:00 AM, Saanich, Weather by CustomWeather, © 2015

Note: Actual official high and low records may vary slightly from our data, if they occured in-between our weather recording intervals... More about our weather records

Advertising

Saanich weather history for previous 24 hours

 ConditionsComfort  
Time TempWeatherWind HumidityBarometerVisibility
8:00 AM
Fri, Feb 27
45 °FLight rain. Broken clouds.2 mph87%29.79 "Hg20 mi
7:00 AM45 °FLight rain. Mostly cloudy.5 mph93%29.78 "Hg12 mi
6:00 AM45 °FLight rain. Mostly cloudy.6 mph93%29.78 "Hg10 mi
5:00 AM45 °FLight rain. Mostly cloudy.7 mph93%29.79 "Hg7 mi
4:00 AM45 °FLight rain. Fog.9 mph93%29.79 "Hg3 mi
3:00 AM45 °FLight rain. Fog.8 mph93%29.80 "Hg2 mi
2:00 AM45 °FRain. Fog.10 mph93%29.81 "Hg1 mi
1:00 AM45 °FLight rain. Fog.10 mph93%29.81 "Hg1 mi
12:00 AM45 °FLight rain. Fog.10 mph93%29.83 "Hg2 mi
11:52 PM
Thu, Feb 26
45 °FLight rain. Fog.10 mph93%29.83 "Hg2 mi
11:00 PM45 °FLight rain. Fog.5 mph100%29.85 "Hg2 mi
10:00 PM45 °FLight rain. Fog.6 mph100%29.87 "Hg2 mi
9:48 PM45 °FLight rain. Fog.6 mph100%29.87 "Hg3 mi
9:00 PM46 °FLight rain. Fog.6 mph93%29.89 "Hg5 mi
8:00 PM46 °FLight rain. Mostly cloudy.5 mph93%29.92 "Hg7 mi
7:00 PM46 °FLight rain. Mostly cloudy.3 mph93%29.94 "Hg10 mi
6:48 PM46 °FLight rain. Mostly cloudy.2 mph93%29.94 "Hg10 mi
6:00 PM46 °FLight rain. Mostly cloudy.3 mph93%29.96 "Hg15 mi
5:00 PM48 °FMostly cloudy.6 mph87%29.99 "Hg20 mi
4:00 PM48 °FCloudy.7 mph87%30.01 "Hg20 mi
3:00 PM48 °FCloudy.6 mph87%30.04 "Hg20 mi
2:00 PM48 °FMore clouds than sun.9 mph87%30.07 "Hg15 mi
1:00 PM48 °FMostly cloudy.6 mph82%30.09 "Hg15 mi
12:00 PM50 °FBroken clouds.5 mph82%30.12 "Hg12 mi
11:00 AM48 °FCloudy.3 mph87%30.14 "Hg10 mi
10:00 AM46 °FFog.2 mph93%30.16 "Hg5 mi
9:00 AM45 °FFog.5 mph100%30.18 "Hg1 mi
Weather by CustomWeather, © 2015

See weather overviewHow to use our weather pages